Detroit Lakes, MN

6:58 PM CDT on October 21, 2017 (GMT -0500)
Detroit Lakes

Weather History for KDTL - March, 2014

Change the Weather History Date:

Thursday, March 27, 2014

  Actual Average Record
Temperature  
Mean Temperature 26 °F -  
Max Temperature 32 °F 43 °F 67 °F (1968)
Min Temperature 19 °F 21 °F -20 °F (1955)
Degree Days  
Heating Degree Days 40    
Moisture  
Dew Point 22 °F    
Average Humidity 74    
Maximum Humidity 86    
Minimum Humidity 69    
Precipitation  
Precipitation 0.00 in - - ()
Sea Level Pressure  
Sea Level Pressure 29.63 in    
Wind  
Wind Speed 10 mph (NNE)    
Max Wind Speed 20 mph    
Max Gust Speed 28 mph    
Visibility 10 miles    
Events      
Averages and records for this station are not official NWS values.
T = Trace of Precipitation, MM = Missing Value Source: NWS Daily Summary

Daily Weather History Graph

Daily Weather History Graph

Search for Another Location

Airport or City:

Trip Planner

Search our weather history database for the weather conditions in past years. The results will help you decide how hot, cold, wet, or windy it might be!

Date:

Astronomy

Mar. 27, 2014 Rise Set
Actual Time 7:12 AM CDT 7:45 PM CDT
Civil Twilight 6:42 AM CDT 8:16 PM CDT
Nautical Twilight 6:06 AM CDT 8:52 PM CDT
Astronomical Twilight 5:28 AM CDT 9:30 PM CDT
Moon 5:16 AM CDT (3/27) 4:24 PM CDT (3/27)
Length of Visible Light 13h 34m
Length of Day
12h 33m
Waning Crescent, 13% of the Moon is Illuminated
Mar 27
Waning Crescent
Mar 30
New
Apr 7
First Quarter
Apr 15
Full
Apr 22
Last Quarter

Hourly Weather History & Observations

Time (CDT) Temp. Windchill Dew Point Humidity Pressure Visibility Wind Dir Wind Speed Gust Speed Precip Events Conditions
12:15 AM 32.0 °F 25.6 °F 23.0 °F 69% 29.50 in 10.0 mi East 6.9 mph - N/A   Clear
12:35 AM 32.0 °F 25.6 °F 23.0 °F 69% 29.50 in 10.0 mi East 6.9 mph - N/A   Clear
12:55 AM 32.0 °F 24.2 °F 23.0 °F 69% 29.51 in 10.0 mi East 9.2 mph - N/A   Clear
1:14 AM 32.0 °F 24.8 °F 23.0 °F 69% 29.50 in 10.0 mi East 8.1 mph - N/A   Clear
1:35 AM 32.0 °F 24.2 °F 23.0 °F 69% 29.49 in 10.0 mi East 9.2 mph - N/A   Clear
1:55 AM 30.2 °F 21.9 °F 23.0 °F 75% 29.49 in 10.0 mi East 9.2 mph - N/A   Clear
2:14 AM 30.2 °F 23.4 °F 23.0 °F 75% 29.49 in 10.0 mi ENE 6.9 mph - N/A   Clear
2:35 AM 30.2 °F 21.9 °F 23.0 °F 75% 29.49 in 10.0 mi East 9.2 mph - N/A   Clear
2:55 AM 30.2 °F 21.9 °F 21.2 °F 69% 29.49 in 10.0 mi NE 9.2 mph - N/A   Clear
3:14 AM 30.2 °F 21.9 °F 23.0 °F 75% 29.50 in 10.0 mi ENE 9.2 mph - N/A   Clear
3:35 AM 30.2 °F 21.9 °F 23.0 °F 75% 29.49 in 10.0 mi ENE 9.2 mph - N/A   Clear
3:55 AM 30.2 °F 20.8 °F 23.0 °F 75% 29.49 in 10.0 mi ENE 11.5 mph - N/A   Clear
4:14 AM 30.2 °F 21.9 °F 23.0 °F 75% 29.49 in 10.0 mi ENE 9.2 mph - N/A   Clear
4:35 AM 30.2 °F 22.6 °F 23.0 °F 75% 29.49 in 10.0 mi NE 8.1 mph - N/A   Clear
4:55 AM 30.2 °F 21.9 °F 21.2 °F 69% 29.49 in 10.0 mi ENE 9.2 mph - N/A   Clear
5:14 AM 30.2 °F 21.9 °F 21.2 °F 69% 29.50 in 10.0 mi NE 9.2 mph - N/A   Clear
5:35 AM 30.2 °F 21.9 °F 21.2 °F 69% 29.51 in 10.0 mi NE 9.2 mph - N/A   Clear
5:55 AM 30.2 °F 22.6 °F 23.0 °F 75% 29.52 in 10.0 mi NNE 8.1 mph - N/A   Clear
6:14 AM 30.2 °F 21.9 °F 23.0 °F 75% 29.52 in 10.0 mi NNE 9.2 mph - N/A   Clear
6:35 AM 30.2 °F 20.8 °F 23.0 °F 75% 29.53 in 10.0 mi NNE 11.5 mph - N/A   Clear
6:55 AM 30.2 °F 22.6 °F 21.2 °F 69% 29.53 in 10.0 mi NE 8.1 mph - N/A   Clear
7:15 AM 30.2 °F 26.7 °F 21.2 °F 69% 29.55 in 10.0 mi North 3.5 mph - N/A   Clear
7:35 AM 30.2 °F 21.3 °F 21.2 °F 69% 29.55 in 10.0 mi NNE 10.4 mph - N/A   Clear
7:55 AM 30.2 °F 21.3 °F 21.2 °F 69% 29.56 in 10.0 mi NNE 10.4 mph - N/A   Clear
8:15 AM 28.4 °F 18.5 °F 21.2 °F 74% 29.56 in 10.0 mi NNE 11.5 mph 18.4 mph N/A   Scattered Clouds
8:35 AM 28.4 °F 18.5 °F 21.2 °F 74% 29.57 in 10.0 mi NNE 11.5 mph 16.1 mph N/A   Clear
8:55 AM 28.4 °F 20.4 °F 21.2 °F 74% 29.57 in 10.0 mi NNE 8.1 mph 17.3 mph N/A   Clear
9:14 AM 28.4 °F 21.2 °F 21.2 °F 74% 29.57 in 10.0 mi North 6.9 mph - N/A   Clear
9:35 AM 28.4 °F 19.1 °F 21.2 °F 74% 29.57 in 10.0 mi North 10.4 mph 17.3 mph N/A   Scattered Clouds
9:55 AM 28.4 °F 18.0 °F 21.2 °F 74% 29.58 in 10.0 mi NNE 12.7 mph 20.7 mph N/A   Scattered Clouds
10:14 AM 28.4 °F 18.5 °F 21.2 °F 74% 29.59 in 10.0 mi NNE 11.5 mph 18.4 mph N/A   Clear
10:35 AM 28.4 °F 15.8 °F 21.2 °F 74% 29.59 in 10.0 mi NNE 18.4 mph 23.0 mph N/A   Clear
10:55 AM 30.2 °F 21.9 °F 23.0 °F 75% 29.61 in 10.0 mi North 9.2 mph 23.0 mph N/A   Clear
11:14 AM 30.2 °F 20.2 °F 23.0 °F 75% 29.61 in 10.0 mi NNE 12.7 mph - N/A   Clear
11:35 AM 30.2 °F 19.8 °F 23.0 °F 75% 29.62 in 10.0 mi NNE 13.8 mph 19.6 mph N/A   Clear
11:54 AM 30.2 °F 19.3 °F 23.0 °F 75% 29.62 in 10.0 mi NNE 15.0 mph - N/A   Clear
12:15 PM 30.2 °F 20.2 °F 23.0 °F 75% 29.62 in 10.0 mi NNE 12.7 mph 18.4 mph N/A   Clear
12:35 PM 30.2 °F 20.8 °F 23.0 °F 75% 29.63 in 10.0 mi NNE 11.5 mph - N/A   Clear
12:54 PM 32.0 °F 23.0 °F 23.0 °F 69% 29.63 in 10.0 mi NNE 11.5 mph - N/A   Clear
1:15 PM 32.0 °F 23.6 °F 23.0 °F 69% 29.63 in 10.0 mi NNE 10.4 mph 19.6 mph N/A   Clear
1:35 PM 32.0 °F 21.6 °F 23.0 °F 69% 29.63 in 10.0 mi NNE 15.0 mph 18.4 mph N/A   Clear
1:54 PM 32.0 °F 23.0 °F 24.8 °F 75% 29.64 in 10.0 mi NNE 11.5 mph 17.3 mph N/A   Clear
2:15 PM 32.0 °F 21.6 °F 26.6 °F 80% 29.64 in 10.0 mi North 15.0 mph 19.6 mph N/A   Scattered Clouds
2:35 PM 32.0 °F 24.8 °F 26.6 °F 80% 29.65 in 10.0 mi North 8.1 mph 16.1 mph N/A   Scattered Clouds
2:54 PM 32.0 °F 23.0 °F 26.6 °F 80% 29.65 in 10.0 mi NNE 11.5 mph 18.4 mph N/A   Scattered Clouds
3:15 PM 32.0 °F 24.8 °F 26.6 °F 80% 29.66 in 10.0 mi North 8.1 mph 20.7 mph N/A   Mostly Cloudy
3:35 PM 32.0 °F 23.0 °F 26.6 °F 80% 29.66 in 10.0 mi North 11.5 mph 23.0 mph N/A   Mostly Cloudy
3:54 PM 32.0 °F 23.0 °F 24.8 °F 75% 29.66 in 10.0 mi North 11.5 mph 20.7 mph N/A   Scattered Clouds
4:15 PM 32.0 °F 21.6 °F 24.8 °F 75% 29.67 in 10.0 mi North 15.0 mph 21.9 mph N/A   Scattered Clouds
4:34 PM 32.0 °F 23.0 °F 23.0 °F 69% 29.68 in 10.0 mi North 11.5 mph 18.4 mph N/A   Scattered Clouds
4:55 PM 32.0 °F 24.2 °F 26.6 °F 80% 29.68 in 10.0 mi North 9.2 mph 26.5 mph N/A   Scattered Clouds
5:15 PM 32.0 °F 23.6 °F 24.8 °F 75% 29.69 in 10.0 mi North 10.4 mph 21.9 mph N/A   Scattered Clouds
5:34 PM 32.0 °F 23.0 °F 24.8 °F 75% 29.70 in 10.0 mi North 11.5 mph 23.0 mph N/A   Clear
5:55 PM 32.0 °F 21.6 °F 23.0 °F 69% 29.71 in 10.0 mi North 15.0 mph 27.6 mph N/A   Clear
6:14 PM 32.0 °F 20.5 °F 23.0 °F 69% 29.71 in 10.0 mi North 18.4 mph 23.0 mph N/A   Clear
6:35 PM 30.2 °F 19.8 °F 23.0 °F 75% 29.73 in 10.0 mi North 13.8 mph 24.2 mph N/A   Clear
6:55 PM 30.2 °F 20.2 °F 23.0 °F 75% 29.73 in 10.0 mi North 12.7 mph 26.5 mph N/A   Clear
7:14 PM 30.2 °F 21.3 °F 23.0 °F 75% 29.74 in 10.0 mi North 10.4 mph 24.2 mph N/A   Clear
7:35 PM 30.2 °F 20.8 °F 23.0 °F 75% 29.75 in 10.0 mi North 11.5 mph 19.6 mph N/A   Scattered Clouds
7:55 PM 30.2 °F 21.9 °F 21.2 °F 69% 29.75 in 10.0 mi North 9.2 mph 17.3 mph N/A   Clear
8:14 PM 30.2 °F 22.6 °F 21.2 °F 69% 29.76 in 10.0 mi North 8.1 mph - N/A   Clear
8:35 PM 28.4 °F 15.4 °F 21.2 °F 74% 29.78 in 10.0 mi NNW 19.6 mph 24.2 mph N/A   Clear
8:55 PM 26.6 °F 13.8 °F 21.2 °F 80% 29.80 in 10.0 mi NNW 17.3 mph 26.5 mph N/A   Clear
9:14 PM 26.6 °F 15.2 °F 19.4 °F 74% 29.81 in 10.0 mi North 13.8 mph 21.9 mph N/A   Clear
9:35 PM 24.8 °F 12.9 °F 19.4 °F 80% 29.82 in 10.0 mi North 13.8 mph 24.2 mph N/A   Clear
9:55 PM 23.0 °F 9.6 °F 17.6 °F 80% 29.83 in 10.0 mi North 16.1 mph 21.9 mph N/A   Clear
10:14 PM 23.0 °F 11.1 °F 17.6 °F 80% 29.84 in 10.0 mi North 12.7 mph 19.6 mph N/A   Clear
10:35 PM 23.0 °F 11.1 °F 17.6 °F 80% 29.85 in 10.0 mi North 12.7 mph 18.4 mph N/A   Clear
10:55 PM 21.2 °F 8.9 °F 17.6 °F 86% 29.87 in 10.0 mi NNW 12.7 mph - N/A   Clear
11:14 PM 21.2 °F 8.9 °F 17.6 °F 86% 29.88 in 10.0 mi NNW 12.7 mph - N/A   Clear
11:35 PM 19.4 °F 7.2 °F 15.8 °F 86% 29.89 in 10.0 mi NNW 11.5 mph - N/A   Clear
11:54 PM 19.4 °F 7.2 °F 15.8 °F 86% 29.89 in 10.0 mi NNW 11.5 mph - N/A   Clear